Tracking 26442 objects as of 7-Dec-2022
HD Live streaming from Space Station
objects crossing your sky now

NOAA 16 DEB

Track NOAA 16 DEB now!
10-day predictions


NORAD ID: 41058
Int'l Code: 2000-055R
Perigee: 854.1 km
Apogee: 889.5 km
Inclination: 98.6 °
Period: 102.2 minutes
Semi major axis: 7242 km
RCS: Unknown
Launch date: September 21, 2000
Source: United States (US)
Launch site: AIR FORCE WESTERN TEST RANGE (AFWTR)

Note: This is SATELLITE DEBRIS
aabbcc
Your satellite tracking list
Your tracking list is empty




NASA's NSSDC Master Catalog

Two Line Element Set (TLE):
1 41058U 00055R   22340.63003960  .00000643  00000-0  39833-3 0  9998
2 41058  98.6426  11.9914 0024475 211.5269 148.4436 14.08450124361254
Source of the keplerian elements: AFSPC